Regional Weather Roundup
Issued by NWS Green Bay, WI

Home | Current Version | Previous Version | Graphics & Text | Print | Product List | Glossary Off
Versions: 1 2 3 4 5 6 7 8 9 10 11 12 13 14 15 16 17 18 19 20 21 22 23 24 25 26 27 28 29 30 31 32 33 34 35 36 37 38 39 40 41 42 43 44 45 46 47 48 49 50

000
ASUS43 KGRB 230710
RWRGRB

NORTH-CENTRAL AND NORTHEAST WISCONSIN REGIONAL WEATHER ROUNDUP
NATIONAL WEATHER SERVICE GREEN BAY WI
200 AM CDT THU OCT 23 2014

WIZ005-009-010>012-018-019-230800-
NORTH CENTRAL WISCONSIN

CITY           SKY/WX    TMP DP  RH WIND       PRES   REMARKS
IRONWOOD       CLOUDY    48  36  61 S8        30.03F
MANITOWISH WTR PTCLDY    44  37  76 S8        30.09F
ARBOR VITAE    CLOUDY    46  37  72 S10       30.11S
EAGLE RIVER    MOCLDY    40  35  81 S5        30.12S
LAND O LAKES   MOCLDY    43  37  78 S6        30.12S
RHINELANDER    CLOUDY    43  36  76 S7        30.14F
PHILLIPS       CLOUDY    48  36  62 S8        30.09F
ANTIGO         FOG       37  37 100 S8        30.16F VSB 1
TOMAHAWK       CLOUDY    42  37  81 CALM      30.14S
MERRILL        MOCLDY    41  38  89 CALM      30.15S
$$

WIZ013-073-230800-
NORTHEAST WISCONSIN

CITY           SKY/WX    TMP DP  RH WIND       PRES   REMARKS
IRON MOUNTAIN  CLOUDY    39  37  92 S7        30.18R
MARINETTE      CLEAR     39  37  93 S5        30.20F
OCONTO         CLEAR     41  40  96 S5        30.21S
$$

WIZ017-030-035>037-045-230800-
CENTRAL WISCONSIN

CITY           SKY/WX    TMP DP  RH WIND       PRES   REMARKS
MEDFORD        MOCLDY    43  36  76 SE7       30.13S
WAUSAU         CLOUDY    41  38  89 SE5       30.15F
MOSINEE        PTCLDY    37  37 100 SE8       30.16F
MARSHFIELD     MOCLDY    43  36  76 S6        30.14S
WISC RAPIDS    MOCLDY    41  37  86 SE7       30.17F
STEVENS POINT  CLEAR     37  35  94 SE3       30.17F
WAUPACA        CLEAR     37  35  93 CALM      30.20S FOG
SHAWANO        PTCLDY    36  34  94 CALM      30.20F FOG
CLINTONVILLE   FOG       32  32 100 CALM      30.20F VSB 1/4
$$

WIZ038-039-048-051-230800-
FOX VALLEY

CITY           SKY/WX    TMP DP  RH WIND       PRES   REMARKS
NWS GREEN BAY  CLEAR     38  36  92 S5        30.21F
APPLETON       CLEAR     37  36  93 S6        30.21S
OSHKOSH        CLEAR     36  35  96 S3        30.20F
FOND DU LAC    CLEAR     36  33  89 S7        30.21F
$$

WIZ022-050-052-230800-
EAST CENTRAL WISCONSIN

CITY           SKY/WX    TMP DP  RH WIND       PRES   REMARKS
STURGEON BAY   CLEAR     39  36  87 S7        30.22F
MANITOWOC      CLEAR     38  37  97 S3        30.23F
SHEBOYGAN      FOG       29  29 100 CALM      30.23F VSB 1/4
$$

LMZ563-521-522-541>543-230800-
LAKESHORE

STATION/POSITION TIME  TEMP    WIND        PRES    VSBY  WAVE
                       AIR SEA DIR/SP/G                  HT/PER
                 (UTC) (F)     (DEG/KT/KT) (MB)    (MI)  (FT/S)
SHEBOYGAN LKSHOR 0700   48 51  180/ 14/ 15 1024.1F
KEWAUNEE LKSHORE 0700   46     190/  8/ 10 1022.5F
ALGOMA MARINA    0700          220/ 21/ 23   N/A
NORTHPORT PIER   0700   42     180/  3/  5 1023.4F
N MID LAKE BUOY  0700   47 51  190/ 12/ 14 1024.0F         1/ 3
SISTER BAY LKSHO 0600          150/  8/ 10   N/A
CHAMBERS ISLAND  0700   44     160/  4/  8 1023.0F
MENOMINEE LKSHOR 0700   45     180/ 11/ 15 1023.4F
$$



USA.gov is the U.S. government's official web portal to all federal, state and local government web resources and services.